This is the latest recevied weather packets stored in our database for station/object NR0A-4. If no packets are shown the sender has not sent any weather packets the latest 10 day(s).
| Time | Temp. | Humidity | Pressure | Rain* | Wind** | Luminosity | Snow |
|---|---|---|---|---|---|---|---|
| 1788035404 | 31.67° C | 60% | 1008 hPa | 0 mm | - | 638 W/m² | - |
| 1788035105 | 31.67° C | 59% | 1008 hPa | 0 mm | - | 501 W/m² | - |
| 1788034805 | 31.67° C | 58% | 1008.1 hPa | 0 mm | - | 301 W/m² | - |
| 1788034513 | 31.67° C | 58% | 1008.2 hPa | 0 mm | - | 464 W/m² | - |
| 1788034204 | 31.67° C | 59% | 1008.1 hPa | 0 mm | - | 707 W/m² | - |
| 1788033904 | 31.67° C | 60% | 1008.2 hPa | 0 mm | - | 721 W/m² | - |
| 1788033604 | 31.67° C | 59% | 1008.3 hPa | 0 mm | - | 726 W/m² | - |
| 1788033305 | 31.67° C | 59% | 1008.3 hPa | 0 mm | - | 721 W/m² | - |
| 1788033004 | 31.67° C | 57% | 1008.3 hPa | 0 mm | - | 728 W/m² | - |
| 1788032704 | 31.67° C | 60% | 1008.5 hPa | 0 mm | - | 737 W/m² | - |
| 1788032404 | 31.11° C | 59% | 1008.5 hPa | 0 mm | - | 738 W/m² | - |
| 1788032104 | 31.11° C | 60% | 1008.5 hPa | 0 mm | - | 749 W/m² | - |
| 1788031804 | 31.11° C | 59% | 1008.7 hPa | 0 mm | - | 749 W/m² | - |
| 1788031504 | 31.11° C | 59% | 1008.7 hPa | 0 mm | - | 770 W/m² | - |
| 1788031204 | 30.56° C | 60% | 1008.7 hPa | 0 mm | - | 800 W/m² | - |
| 1788030904 | 30.56° C | 59% | 1008.6 hPa | 0 mm | - | 754 W/m² | - |
| 1788030604 | 30° C | 61% | 1008.5 hPa | 0 mm | - | 807 W/m² | - |
| 1788030305 | 30° C | 58% | 1008.5 hPa | 0 mm | - | 744 W/m² | - |
| 1788030004 | 30° C | 58% | 1008.6 hPa | 0 mm | - | 782 W/m² | - |
| 1788029704 | 29.44° C | 60% | 1008.7 hPa | 0 mm | - | 840 W/m² | - |
| 1788029405 | 28.89° C | 64% | 1008.8 hPa | 0 mm | - | 835 W/m² | - |
| 1788029105 | 28.33° C | 63% | 1008.8 hPa | 0 mm | - | 863 W/m² | - |
| 1788028805 | 28.33° C | 62% | 1008.7 hPa | 0 mm | - | 288 W/m² | - |
| 1788028505 | 28.33° C | 61% | 1008.9 hPa | 0 mm | - | 329 W/m² | - |
| 1788028205 | 28.33° C | 61% | 1009 hPa | 0 mm | - | 406 W/m² | - |
* Rain latest hour (hover to see other rain measurements)
** Current wind speed in m/s (hover to see current wind gust speed)